Location: Ernsee
(50.8780°N, 12.0389°E)
Time: 13:10:32
(UTC+00:00)

Lacrosse 5 rocket - Pass Details

Date: 20 January 2020
Orbit: 465 x 632 km, 57.0° (Epoch: 20 February)

Event Time Altitude Azimuth Distance (km) Brightness Sun altitude
Exits shadow 03:24:35 22° 58° (ENE) 1,383 3.8 -34.1°
Drops below altitude 10° 03:26:12 10° 59° (ENE) 1,995 4.9 -33.8°
Sets 03:28:29 0° 60° (ENE) 2,887 5.9 -33.5°
